Regional Weather Roundup
Issued by NWS Portland, ME

Home | Current Version | Previous Version | Text Only | Print | Product List | Glossary On
Versions: 1 2 3 4 5 6 7 8 9 10 11 12 13 14 15 16 17 18 19 20 21 22 23 24 25 26 27 28 29 30 31 32 33 34 35 36 37 38 39 40 41 42 43 44 45 46 47 48 49 50
000
ASUS41 KGYX 300510
RWRGYX
WEATHER ROUNDUP FOR MAINE AND NEW HAMPSHIRE
NATIONAL WEATHER SERVICE GRAY ME
1200 AM EST FRI JAN 30 2015

MEZ002-005-006-010-012-015-018-020-021-024-026-027-029-300600-
MAINE

CITY           SKY/WX    TMP DP  RH WIND       PRES   REMARKS
PORTLAND       CLOUDY    22  15  75 CALM      30.05F
SANFORD        MOCLDY    19   9  63 CALM      30.04F
BAR HARBOR     PTCLDY    12  10  92 CALM      30.08F
WISCASSET      MOCLDY    15  11  83 CALM      30.07F
ROCKLAND       MOCLDY    14   9  79 CALM      30.05F
FRYEBURG       CLOUDY    23  16  74 CALM      30.02F
LEWISTONAUBURN CLOUDY    16   9  73 CALM      30.04F
AUGUSTA        CLOUDY    18   7  62 CALM      30.05F
WATERVILLE     MOCLDY    18   3  53 CALM      30.02F
BANGOR         MOCLDY     8   5  87 CALM      30.08F
GREENVILLE       N/A     18   2  49 VRB5      29.92F
MILLINOCKET    PTCLDY     6   2  83 CALM      30.06F
HOULTON        PTCLDY     8   3  80 S3        30.03F
PRESQUE ISLE   CLEAR     10   5  79 SE8       30.02F
FRENCHVILLE    PTCLDY    12   5  73 SE6       29.97F
CARIBOU        PTCLDY     8   4  83 SE5       30.00F
$$

NHZ002-005-008-009-011-012-014-300600-
NEW HAMPSHIRE

CITY           SKY/WX    TMP DP  RH WIND       PRES   REMARKS
PORTSMOUTH     CLOUDY    25  20  80 SE3       30.04F
ROCHESTER      CLOUDY    24  18  77 SE3       30.03F
NASHUA         CLOUDY    28  20  72 CALM      30.04F
MANCHESTER     CLOUDY    28  19  69 SE7       30.01F
CONCORD        CLOUDY    28  19  69 S6        30.02F
LACONIA        CLOUDY    27  18  69 CALM      29.98F
PLYMOUTH       CLOUDY    26  22  84 CALM      29.99F
BERLIN         CLOUDY    26   8  46 VRB3      29.90F
WHITEFIELD     CLOUDY    28  15  58 CALM      29.89F
JAFFREY        LGT SNOW  25  20  81 S5        29.96F
KEENE          CLOUDY    25  21  86 S6        29.98F
LEBANON        LGT SNOW  26  21  81 VRB3      29.94F
MT WASHINGTON  SNOW      10  10 100 S52         N/A  VSB 1/16WCI -17
$$

VTZ005-007-008-300600-
VERMONT

CITY           SKY/WX    TMP DP  RH WIND       PRES   REMARKS
ST JOHNSBURY     N/A     26  19  74 MISG      29.90F
MONTPELIER     LGT SNOW  23  17  78 S18       29.89F WCI   9
BURLINGTON     LGT SNOW  26  22  84 S13       29.86F VSB 1   WCI  15
$$

MAZ007-012-024-CTZ003-RIZ002-NYZ038-NYZ072-300600-
SOUTHERN NEW ENGLAND AND NY

CITY           SKY/WX    TMP DP  RH WIND       PRES   REMARKS
BOSTON         CLOUDY    28  22  78 SE5       30.06F
WORCESTER      CLOUDY    25  20  81 S6        29.98F
NANTUCKET      CLOUDY    33  27  78 S5        30.07F
PROVIDENCE     CLOUDY    29  23  78 CALM      30.05F
HARTFORD       CLOUDY    29  23  78 CALM      29.99F
ALBANY         LGT SNOW  28  23  81 S18G25    29.90F WCI  15
NEW YORK CITY  LGT SNOW  31  27  85 SW9       30.00F VSB 1
$$

ANZ081-ANZ082-ANZ150-NHZ014-MEZ023>029-300600-
COASTAL MARINE OBSERVATIONS

STATION/POSITION TIME  TEMP    WIND        PRES    WAVE
                       AIR SEA DIR/SP/G            HT/PER
                 (UTC) (F)     (DEG/KT/KT) (MB)    (FT/S)
MOUNT DESERT ROC 0500   35                 1017.6F
MATINICUS ROCK   0500          180/ 12/ 14 1017.7F
PORTLAND WX BUOY 0450   32 40  280/  2/  4 1018.0F   2/10
WELLS            0400   24 33   CALM  /  1 1017.9R
ISLE OF SHOALS   0500   32     200/ 14/ 15 1017.1F
JEFFREYS LEDGE   0421      44                N/A     3/10
CASHES LEDGE BUO 0450   36 44  180/ 12/ 16 1017.8F   3/ 9
$$

.............KEY..............
   WCI - WIND CHILL
   TC  - TEMPERATURE IN CELSIUS
   VSB - VISIBILITY IN MILES
   HX  - HEAT INDEX
   FAIR- INDICATES FEW OR NO CLOUDS BELOW 12,000 FT, WITH NO
         SIGNIFICANT WEATHER AND/OR OBSTRUCTIONS TO VISIBILITY.





USA.gov is the U.S. government's official web portal to all federal, state and local government web resources and services.